Regional Weather Roundup
Issued by NWS Upton, NY

Current Version | Previous Version | Graphics & Text | Print | Product List | Glossary Off
Versions: 1 2 3 4 5 6 7 8 9 10 11 12 13 14 15 16 17 18 19 20 21 22 23 24 25 26 27

000
ASUS41 KOKX 241809
RWROKX

REGIONAL WEATHER ROUNDUP
NATIONAL WEATHER SERVICE NEW YORK NY
200 PM EDT WED MAY 24 2017

NOTE: "FAIR" INDICATES FEW OR NO CLOUDS BELOW 12,000 FEET WITH NO
SIGNIFICANT WEATHER AND/OR OBSTRUCTIONS TO VISIBILITY.

NYZ071-072-176-178-NJZ106-104-241900-
NEW YORK CITY METRO AREA

CITY           SKY/WX    TMP DP  RH WIND       PRES   REMARKS
Central Park   CLOUDY    67  50  54 VRB7      29.78F
Wall St Helipt CLOUDY    68  52  56 NE13      29.76S
Bronx Bot Gard   N/A     64  50  59 NE2       29.79R
LaGuardia APRT CLOUDY    67  51  56 NE13G23   29.75F
Kennedy INTL   PTSUNNY   68  53  58 NE12      29.75F
Breezy Point     N/A     59 N/A N/A SE9         N/A
Newark/Liberty CLOUDY    69  50  50 NE13      29.75S
Teterboro      CLOUDY    68  52  56 E12       29.74F
$$

NYZ177-179-078>081-241900-
LONG ISLAND NEW YORK

CITY           SKY/WX    TMP DP  RH WIND       PRES   REMARKS
Jones Beach      N/A     61 N/A N/A SE9         N/A
Matinecock PT    N/A     63 N/A N/A E16         N/A
Farmingdale    CLOUDY    67  52  58 E13       29.74F
MacArthur/ISP  CLOUDY    67  52  58 NE15      29.74F
Shirley        CLOUDY    65  55  70 N7        29.76S
Mt Sinai Harb    N/A    N/A N/A N/A E8          N/A
Westhampton    CLOUDY    65  50  58 NE15      29.77S
East Hampton   CLOUDY    62  49  62 NE16G23   29.76F
Montauk          N/A     61  51  70 E10G17    29.77F
$$

NYZ052-065-067-241900-
HUDSON VALLEY

CITY           SKY/WX    TMP DP  RH WIND       PRES   REMARKS
White Plains   PTSUNNY   66  54  65 SE10      29.75F
Larchmont Harb   N/A     59 N/A N/A NE16        N/A
Croton O-T Hud   N/A     73 N/A N/A NE3G9       N/A
Newburgh       PTSUNNY   70  55  60 VRB7      29.76F
Montgomery     PTSUNNY   72  51  47 CALM      29.74F
Poughkeepsie   MOSUNNY   72  48  42 VRB6      29.73F
Albany         CLOUDY    74  51  44 S8        29.75F
$$

NJZ001-105-106-008-010-013-015-019>022-104-241900-
NEW JERSEY

CITY           SKY/WX    TMP DP  RH WIND       PRES   REMARKS
Newark/Liberty CLOUDY    69  50  50 NE13      29.75S
Teterboro      CLOUDY    68  52  56 E12       29.74F
Caldwell       CLOUDY    71  51  49 SE13      29.75F
Somerville     CLOUDY    72  56  57 VRB3      29.72S
Linden         CLOUDY    69  48  48 E13       29.74F
Perth Amboy      N/A     61 N/A N/A SE14        N/A
Sussex         CLOUDY    71  50  47 VRB7G16   29.74F
Andover          N/A     70  47  43 VRB6      29.74F
Trenton        CLOUDY    69  54  58 VRB7      29.74R
Millville      CLOUDY    70  51  51 E13       29.72F
Atlantic City  NOT AVBL
Wrightstown    CLOUDY    66  49  54 NE13      29.73R
Toms River     CLOUDY    64  51  62 E12G17    29.76R
Belmar         CLOUDY    63  53  70 E9        29.76F
$$

PAZ047>061-062-071-241900-
EASTERN PENNSYLVANIA

CITY           SKY/WX    TMP DP  RH WIND       PRES   REMARKS
Philadelphia   PTSUNNY   70  52  52 E13       29.73F
Allentown      MOSUNNY   72  49  44 SE12      29.74S
Scranton       MOSUNNY   73  47  39 VRB3G16   29.71F
$$

CTZ002-004>006-009-010-012-RIZ004-006-007-MAZ004-011-015-241900-
SOUTHERN NEW ENGLAND
 IN CT

CITY           SKY/WX    TMP DP  RH WIND       PRES   REMARKS
Bradley INTL   CLOUDY    72  49  44 E8        29.77F
Hartford       CLOUDY    68  52  56 E6        29.76F
Danbury        CLOUDY    66  50  56 E10       29.77F
Wtrbury/Oxford NOT AVBL
Bridgeport     CLOUDY    65  54  67 SE12      29.76F
Meriden        CLOUDY    68  54  60 E6        29.76F
New Haven      CLOUDY    65  52  62 SE12      29.76F
Chester          N/A     66  52  59 VRB6G12   29.77S
Groton         CLOUDY    63  52  67 SE14G23   29.75F
Wilimantic     CLOUDY    68  52  56 E8        29.77F

 IN RI

CITY           SKY/WX    TMP DP  RH WIND       PRES   REMARKS
Providence     CLOUDY    66  52  60 E7        29.79S
Block Island   CLOUDY    58  52  80 E9        29.79R
Westerly       CLOUDY    65  54  67 E15       29.77S
 IN MA

CITY           SKY/WX    TMP DP  RH WIND       PRES   REMARKS
Boston         CLOUDY    62  54  74 E5        29.82R
Worcester      CLOUDY    63  48  58 E9        29.80F
Westfield      CLOUDY    70  51  51 VRB6      29.77F
Provincetown   CLOUDY    62  51  67 E9        29.81S
Nantucket      CLOUDY    58  52  80 E17       29.76R
$$

ANZ330-335-338-340-345-350-353-355-241900-
COASTAL MARINE OBSERVATIONS


STATION/POSITION TIME  SKY/WX   TEMP    WIND        PRES    VSBY  WAVE
                                AIR SEA DIR/SP/G                  HT/PER
                 (UTC)          (F)     (DEG/KT/KT) (MB)    (MI)  (FT/S)
NY HARB ENTRANCE 1650            59 59   70/  8/ 10 1007.8          3/ 6
20 S FIRE ISLAND 1750            55 55   50/ 17/ 19 1006.1          4/ 6
GREAT SOUTH BAY  1730            60 65  100/  8/ 12   N/A
23 SSW MONTAUK P 1650            54 55              1008.1          4/ 5
15 E BARNEGAT LI 1730               57                N/A           5/ 7
HUDSON CANYON    1650            54 54   50/ 16/ 19 1005.5          6/ 7
KINGS POINT      1742            65 56   70/  8/ 13 1007.3
EXECUTION ROCKS  1745            63                   N/A
CENTRAL LI SOUND 1715            58      80/  8/ 10   N/A           0
EASTERN LI SOUND NOT AVBL
ROBBINS REEF     1742            63      40/ 15/ 17 1007.7
$$


>>>>>>>>>>>>>>>>>>>>>>>>>>>> KEY <<<<<<<<<<<<<<<<<<<<<<<<<<<
>                                                          <
>     SKY/WX - Sky Condition/Present Weather               <
>     TMP    - Temperature in Fahrenheit                   <
>     DP     - Dew Point in Fahrenheit                     <
>     RH     - Relative Humidity in Percent                <
>     WIND   - Direction (from) and Speed in MPH           <
>     PRES   - Mean Sea Level Pressure (inches of Hg)      <
>     WCI    - Wind Chill Index                            <
>     VSB    - VISIBILITY IN MILES                         <
>     HX     - HEAT INDEX                                  <
>     TC     - TEMPERATURE IN CELSIUS                      <
>     VRB    - VARIABLE WIND DIRECTION                     <
>                                                          <
>>>>>>>>>>>>>>>>>>>>>>>>>>>> KEY <<<<<<<<<<<<<<<<<<<<<<<<<<<




USA.gov is the U.S. government's official web portal to all federal, state and local government web resources and services.